Hourly Weather Alma

Today, 8 March, Monday

Time Temperature Precipitation Wind Pressure Humidity
00:00 -17°C° 0 mm 2 mps 758 mmHg 95%
01:00 -16°C° 0 mm 1 mps 758 mmHg 95%
02:00 -17°C° 0 mm 1 mps 758 mmHg 95%
03:00 -17°C° 0 mm 1 mps 758 mmHg 96%
04:00 -18°C° 0 mm 1 mps 758 mmHg 96%
05:00 -18°C° 0 mm 1 mps 758 mmHg 96%
06:00 -18°C° 0 mm 1 mps 759 mmHg 96%
07:00 -18°C° 0 mm 0 mps 759 mmHg 95%
08:00 -16°C° 0 mm 0 mps 758 mmHg 91%
09:00 -14°C° 0 mm 0 mps 758 mmHg 87%
10:00 -11°C° 0 mm 0 mps 758 mmHg 83%
11:00 -10°C° 0 mm 1 mps 757 mmHg 82%
12:00 -8°C° 0 mm 1 mps 757 mmHg 81%
13:00 -7°C° 0 mm 1 mps 756 mmHg 80%
14:00 -6°C° 0 mm 1 mps 755 mmHg 81%
15:00 -6°C° 0 mm 1 mps 755 mmHg 83%
16:00 -6°C° 0 mm 1 mps 754 mmHg 84%
17:00 -7°C° 0 mm 1 mps 754 mmHg 87%
18:00 -10°C° 0 mm 2 mps 754 mmHg 89%
19:00 -12°C° 0 mm 2 mps 754 mmHg 92%
20:00 -12°C° 0 mm 2 mps 754 mmHg 92%
21:00 -12°C° 0 mm 2 mps 753 mmHg 92%
22:00 -12°C° 0 mm 2 mps 753 mmHg 92%
23:00 -12°C° 0.4 mm 2 mps 753 mmHg 93%

Tomorrow, 9 March, Tuesday

Time Temperature Precipitation Wind Pressure Humidity
00:00 -10°C° 0.4 mm 2 mps 752 mmHg 94%
01:00 -9°C° 0.4 mm 2 mps 752 mmHg 95%
02:00 -9°C° 0.5 mm 2 mps 752 mmHg 95%
03:00 -9°C° 0.5 mm 2 mps 751 mmHg 95%
04:00 -9°C° 0.5 mm 2 mps 751 mmHg 95%
05:00 -9°C° 0.2 mm 2 mps 751 mmHg 95%
06:00 -9°C° 0.2 mm 2 mps 751 mmHg 95%
07:00 -8°C° 0.2 mm 2 mps 752 mmHg 95%
08:00 -7°C° 0.1 mm 2 mps 752 mmHg 93%
09:00 -5°C° 0.1 mm 2 mps 752 mmHg 92%
10:00 -4°C° 0.1 mm 2 mps 752 mmHg 91%
11:00 -3°C° 0.1 mm 2 mps 752 mmHg 91%
12:00 -4°C° 0.1 mm 3 mps 753 mmHg 91%
13:00 -2°C° 0.1 mm 3 mps 753 mmHg 90%
14:00 -1°C° 0 mm 3 mps 754 mmHg 90%
15:00 -1°C° 0 mm 3 mps 754 mmHg 90%
16:00 -1°C° 0 mm 3 mps 754 mmHg 90%
17:00 -1°C° 0 mm 2 mps 755 mmHg 89%
18:00 -2°C° 0 mm 2 mps 756 mmHg 89%
19:00 -2°C° 0 mm 2 mps 757 mmHg 88%
20:00 -3°C° 0 mm 2 mps 757 mmHg 89%
21:00 -4°C° 0 mm 2 mps 758 mmHg 90%
22:00 -5°C° 0 mm 2 mps 758 mmHg 91%
23:00 -5°C° 0 mm 2 mps 758 mmHg 91%

Day after tomorrow, 10 March, Wednesday

Time Temperature Precipitation Wind Pressure Humidity
00:00 -6°C° 0 mm 2 mps 758 mmHg 91%
01:00 -7°C° 0 mm 2 mps 759 mmHg 92%
02:00 -7°C° 0 mm 2 mps 758 mmHg 92%
03:00 -7°C° 0 mm 2 mps 758 mmHg 92%
04:00 -7°C° 0 mm 2 mps 758 mmHg 91%
05:00 -6°C° 0 mm 2 mps 758 mmHg 91%
06:00 -6°C° 0 mm 2 mps 758 mmHg 91%
07:00 -5°C° 0 mm 2 mps 757 mmHg 91%
08:00 -4°C° 0 mm 3 mps 757 mmHg 91%
09:00 -2°C° 0 mm 3 mps 756 mmHg 91%
10:00 0°C° 0 mm 3 mps 755 mmHg 91%
11:00 0°C° 0 mm 3 mps 754 mmHg 92%
12:00 +2°C° 0 mm 2 mps 754 mmHg 93%
13:00 +3°C° 0 mm 2 mps 753 mmHg 93%
14:00 +2°C° 0 mm 3 mps 753 mmHg 93%
15:00 +2°C° 0 mm 3 mps 752 mmHg 93%
16:00 +2°C° 0 mm 3 mps 751 mmHg 93%
17:00 +1°C° 0.3 mm 4 mps 751 mmHg 93%
18:00 +1°C° 0.3 mm 4 mps 751 mmHg 92%
19:00 +1°C° 0.3 mm 4 mps 751 mmHg 91%
20:00 +1°C° 0.2 mm 4 mps 750 mmHg 92%
21:00 +1°C° 0.2 mm 5 mps 749 mmHg 93%
22:00 +2°C° 0.2 mm 5 mps 749 mmHg 93%
23:00 +2°C° 0.2 mm 5 mps 748 mmHg 93%

11 March, Thursday

Time Temperature Precipitation Wind Pressure Humidity
00:00 +2°C° 0.2 mm 5 mps 747 mmHg 94%
01:00 +2°C° 0.2 mm 5 mps 747 mmHg 94%
02:00 +3°C° 0.2 mm 4 mps 746 mmHg 94%
03:00 +3°C° 0.2 mm 4 mps 746 mmHg 94%
04:00 +3°C° 0.2 mm 4 mps 746 mmHg 94%
05:00 +3°C° 0.5 mm 4 mps 745 mmHg 95%
06:00 +3°C° 0.5 mm 4 mps 745 mmHg 95%
07:00 +3°C° 0.5 mm 4 mps 744 mmHg 96%
08:00 +4°C° 0.3 mm 4 mps 744 mmHg 96%
09:00 +4°C° 0.3 mm 4 mps 744 mmHg 96%
10:00 +4°C° 0.3 mm 4 mps 743 mmHg 96%
11:00 +5°C° 0.1 mm 5 mps 743 mmHg 95%
12:00 +6°C° 0.1 mm 5 mps 742 mmHg 94%
13:00 +5°C° 0.1 mm 6 mps 742 mmHg 92%
14:00 +6°C° 0.3 mm 5 mps 742 mmHg 92%
15:00 +6°C° 0.3 mm 5 mps 743 mmHg 92%
16:00 +6°C° 0.3 mm 5 mps 743 mmHg 92%
17:00 +3°C° 0.2 mm 5 mps 744 mmHg 90%
18:00 +1°C° 0.2 mm 5 mps 744 mmHg 88%
19:00 -2°C° 0.2 mm 6 mps 745 mmHg 86%
20:00 -4°C° 0 mm 5 mps 746 mmHg 85%
21:00 -4°C° 0 mm 4 mps 746 mmHg 83%
22:00 -5°C° 0 mm 4 mps 747 mmHg 82%
23:00 -6°C° 0 mm 3 mps 747 mmHg 84%

12 March, Friday

Time Temperature Precipitation Wind Pressure Humidity
00:00 -5°C° 0 mm 2 mps 747 mmHg 85%
01:00 -5°C° 0 mm 2 mps 747 mmHg 87%
02:00 -3°C° 0.3 mm 1 mps 747 mmHg 89%
03:00 -3°C° 0.3 mm 1 mps 746 mmHg 91%
04:00 -3°C° 0.3 mm 1 mps 746 mmHg 94%
05:00 -3°C° 1 mm 1 mps 746 mmHg 94%
06:00 -3°C° 1 mm 1 mps 746 mmHg 94%
07:00 -3°C° 1 mm 1 mps 746 mmHg 95%
08:00 -2°C° 0.4 mm 1 mps 746 mmHg 92%
09:00 -1°C° 0.4 mm 1 mps 746 mmHg 90%
10:00 0°C° 0.4 mm 1 mps 746 mmHg 87%
11:00 0°C° 0.1 mm 1 mps 746 mmHg 88%
12:00 +1°C° 0.1 mm 1 mps 745 mmHg 89%
13:00 +1°C° 0.1 mm 1 mps 745 mmHg 89%
14:00 +1°C° 0.3 mm 1 mps 745 mmHg 91%
15:00 +1°C° 0.3 mm 1 mps 745 mmHg 92%
16:00 -1°C° 0.3 mm 2 mps 745 mmHg 94%
17:00 -2°C° 0.1 mm 2 mps 745 mmHg 95%
18:00 -1°C° 0.1 mm 1 mps 745 mmHg 96%
19:00 -2°C° 0.1 mm 1 mps 745 mmHg 97%
20:00 -2°C° 0 mm 1 mps 746 mmHg 97%
21:00 -2°C° 0 mm 1 mps 746 mmHg 96%
22:00 -2°C° 0 mm 1 mps 746 mmHg 96%
23:00 -4°C° 0.2 mm 2 mps 745 mmHg 96%

13 March, Saturday

Time Temperature Precipitation Wind Pressure Humidity
00:00 -4°C° 0.2 mm 2 mps 744 mmHg 95%
01:00 -4°C° 0.2 mm 2 mps 743 mmHg 95%
02:00 -6°C° 0.4 mm 3 mps 743 mmHg 95%
03:00 -6°C° 0.4 mm 3 mps 742 mmHg 95%
04:00 -7°C° 0.4 mm 4 mps 741 mmHg 94%
05:00 -7°C° 0.4 mm 4 mps 742 mmHg 94%
06:00 -7°C° 0.4 mm 4 mps 742 mmHg 93%
07:00 -7°C° 0.4 mm 5 mps 742 mmHg 93%
08:00 -9°C° 0.2 mm 6 mps 743 mmHg 89%
09:00 -9°C° 0.2 mm 7 mps 744 mmHg 85%
10:00 -11°C° 0.2 mm 9 mps 745 mmHg 82%
11:00 -11°C° 0.1 mm 8 mps 745 mmHg 80%
12:00 -11°C° 0.1 mm 8 mps 746 mmHg 79%
13:00 -11°C° 0.1 mm 8 mps 747 mmHg 77%
14:00 -11°C° 0.1 mm 8 mps 747 mmHg 76%
15:00 -11°C° 0.1 mm 7 mps 748 mmHg 75%
16:00 -11°C° 0.1 mm 7 mps 748 mmHg 74%
17:00 -13°C° 0 mm 7 mps 749 mmHg 74%
18:00 -14°C° 0 mm 6 mps 750 mmHg 75%
19:00 -15°C° 0 mm 6 mps 751 mmHg 76%
20:00 -16°C° 0 mm 6 mps 752 mmHg 77%
21:00 -17°C° 0 mm 5 mps 752 mmHg 78%
22:00 -17°C° 0 mm 5 mps 753 mmHg 79%
23:00 -18°C° 0 mm 5 mps 753 mmHg 80%
Show more